TimeCDT,TemperatureF,Dew PointF,Humidity,Sea Level PressureIn,VisibilityMPH,Wind Direction,Wind SpeedMPH,Gust SpeedMPH,PrecipitationIn,Events,Conditions,WindDirDegrees,DateUTC
12:53 AM,62.1,53.1,72,30.06,10.0,NE,4.6,-,N/A,,Mostly Cloudy,50,2013-07-24 05:53:00
1:53 AM,62.1,54.0,75,30.06,10.0,ENE,3.5,-,N/A,,Mostly Cloudy,70,2013-07-24 06:53:00
2:53 AM,63.0,54.0,72,30.05,10.0,East,3.5,-,N/A,,Overcast,80,2013-07-24 07:53:00
3:53 AM,62.1,55.0,78,30.06,10.0,North,3.5,-,N/A,,Mostly Cloudy,10,2013-07-24 08:53:00
4:53 AM,62.1,55.0,78,30.06,10.0,Calm,Calm,-,N/A,,Overcast,0,2013-07-24 09:53:00
5:53 AM,62.1,55.0,78,30.06,10.0,Calm,Calm,-,N/A,,Overcast,0,2013-07-24 10:53:00
6:53 AM,61.0,55.9,83,30.08,10.0,Calm,Calm,-,N/A,,Partly Cloudy,0,2013-07-24 11:53:00
7:53 AM,64.9,57.0,75,30.08,10.0,Calm,Calm,-,N/A,,Clear,0,2013-07-24 12:53:00
8:53 AM,68.0,55.9,65,30.08,10.0,NNW,4.6,-,N/A,,Clear,330,2013-07-24 13:53:00
9:53 AM,69.1,54.0,58,30.09,10.0,NNW,6.9,-,N/A,,Clear,340,2013-07-24 14:53:00
10:53 AM,71.1,52.0,51,30.08,10.0,NNW,8.1,-,N/A,,Clear,340,2013-07-24 15:53:00
11:53 AM,73.0,53.1,49,30.08,10.0,WNW,5.8,-,N/A,,Scattered Clouds,300,2013-07-24 16:53:00
12:53 PM,73.9,52.0,46,30.06,10.0,NW,9.2,-,N/A,,Clear,310,2013-07-24 17:53:00
1:53 PM,73.9,53.1,48,30.05,10.0,WNW,8.1,-,N/A,,Scattered Clouds,300,2013-07-24 18:53:00
2:53 PM,75.9,54.0,46,30.04,10.0,NNW,5.8,-,N/A,,Clear,330,2013-07-24 19:53:00
3:53 PM,77.0,55.0,47,30.02,10.0,WNW,10.4,-,N/A,,Mostly Cloudy,290,2013-07-24 20:53:00
4:53 PM,77.0,54.0,45,30.01,10.0,West,11.5,-,N/A,,Partly Cloudy,270,2013-07-24 21:53:00
5:53 PM,75.9,55.0,48,29.99,10.0,West,5.8,-,N/A,,Partly Cloudy,270,2013-07-24 22:53:00
6:53 PM,75.9,57.0,52,29.97,10.0,SW,8.1,-,N/A,,Partly Cloudy,220,2013-07-24 23:53:00
7:53 PM,73.9,57.9,57,29.96,10.0,WSW,5.8,-,N/A,,Clear,240,2013-07-25 00:53:00
8:53 PM,72.0,59.0,64,29.95,10.0,South,6.9,-,N/A,,Clear,190,2013-07-25 01:53:00
9:53 PM,71.1,57.9,63,29.94,10.0,SSW,9.2,-,N/A,,Partly Cloudy,200,2013-07-25 02:53:00
10:53 PM,70.0,59.0,68,29.95,10.0,SSW,10.4,-,N/A,,Mostly Cloudy,210,2013-07-25 03:53:00
11:53 PM,68.0,59.0,73,29.97,10.0,WSW,8.1,-,N/A,,Scattered Clouds,240,2013-07-25 04:53:00